{"data":{"norad_id":62513,"epoch":"2026-05-24T21:48:45.453024Z","epoch_age_seconds":72971,"freshness":"FRESH","line1":"1 62513U 25004C   26144.90885941  .00193900  00000+0  14734-2 0  9991","line2":"2 62513  42.9991 331.5026 0002148 245.2749 114.7896 15.70939222 79193","mean_motion":15.70939222,"eccentricity":0.0002148,"inclination_deg":42.9991,"raan_deg":331.5026,"arg_perigee_deg":245.2749,"mean_anomaly_deg":114.7896,"bstar":0.0014734,"rev_number":7919,"period_min":91.664908472188,"perigee_km":354.76494339591,"apogee_km":357.65801950354,"semimajor_km":6734.3484814497,"source":"CELESTRAK","updated_at":"2026-05-25T13:38:19.701923Z"}}